[TLELIST] Archives

 

[TLELIST] Current TLEs

March 16th 2023 PST

HST 1 20580U 90037B 23075.00175214 .00007494 00000-0 41047-3 0 9994 2 20580 28.4689 167.6625 0003099 94.9386 76.5834 15.12361923607602 ISS (ZARYA) 1 25544U 98067A 23075.43289200 .00020037 00000-0 36839-3 0 9999 2 25544 51.6403 68.0422 0006068 97.4505 59.4848 15.49183853387400 CXO 1 25867U 99040B 23075.41392744 .00001121 00000-0 00000-0 0 9996 2 25867 38.7399 208.4399 9021198 253.0549 0.4930 0.37816239 12820 ...Continue Reading

[TLELIST] Current TLEs

March 15th 2023 PST

HST 1 20580U 90037B 23073.58825157 .00007637 00000-0 41871-3 0 9997 2 20580 28.4690 177.0553 0003062 80.5711 299.9005 15.12341191607125 ISS (ZARYA) 1 25544U 98067A 23074.38786450 .00020600 00000-0 37906-3 0 9993 2 25544 51.6415 73.2144 0005971 93.8782 351.1056 15.49140895387245 CXO 1 25867U 99040B 23075.41392744 .00001121 00000-0 00000-0 0 9996 2 25867 38.7399 208.4399 9021198 253.0549 0.4930 0.37816239 12820 ...Continue Reading

[TLELIST] Current TLEs

March 15th 2023 PST

HST 1 20580U 90037B 23073.58825157 .00007637 00000-0 41871-3 0 9997 2 20580 28.4690 177.0553 0003062 80.5711 299.9005 15.12341191607125 ISS (ZARYA) 1 25544U 98067A 23074.38786450 .00020600 00000-0 37906-3 0 9993 2 25544 51.6415 73.2144 0005971 93.8782 351.1056 15.49140895387245 CXO 1 25867U 99040B 23075.41392744 .00001121 00000-0 00000-0 0 9996 2 25867 38.7399 208.4399 9021198 253.0549 0.4930 0.37816239 12820 ...Continue Reading

[TLELIST] Current TLEs

March 15th 2023 PST

HST 1 20580U 90037B 23073.58825157 .00007637 00000-0 41871-3 0 9997 2 20580 28.4690 177.0553 0003062 80.5711 299.9005 15.12341191607125 ISS (ZARYA) 1 25544U 98067A 23074.38786450 .00020600 00000-0 37906-3 0 9993 2 25544 51.6415 73.2144 0005971 93.8782 351.1056 15.49140895387245 CXO 1 25867U 99040B 23075.41392744 .00001121 00000-0 00000-0 0 9996 2 25867 38.7399 208.4399 9021198 253.0549 0.4930 0.37816239 12820 ...Continue Reading

[TLELIST] Current TLEs

March 15th 2023 PST

HST 1 20580U 90037B 23073.58825157 .00007637 00000-0 41871-3 0 9997 2 20580 28.4690 177.0553 0003062 80.5711 299.9005 15.12341191607125 ISS (ZARYA) 1 25544U 98067A 23074.38786450 .00020600 00000-0 37906-3 0 9993 2 25544 51.6415 73.2144 0005971 93.8782 351.1056 15.49140895387245 CXO 1 25867U 99040B 23075.41392744 .00001121 00000-0 00000-0 0 9996 2 25867 38.7399 208.4399 9021198 253.0549 0.4930 0.37816239 12820 ...Continue Reading

[TLELIST] Current TLEs

March 14th 2023 PST

HST 1 20580U 90037B 23072.40633718 .00007183 00000-0 39341-3 0 9992 2 20580 28.4691 184.9085 0003025 68.8171 344.0557 15.12322967606944 ISS (ZARYA) 1 25544U 98067A 23073.36569740 .00019001 00000-0 34864-3 0 9994 2 25544 51.6403 78.2673 0005725 83.4155 57.2753 15.49281621387083 CXO 1 25867U 99040B 23075.41392744 .00001121 00000-0 00000-0 0 9996 2 25867 38.7399 208.4399 9021198 253.0549 0.4930 0.37816239 12820 ...Continue Reading

[TLELIST] Current TLEs

March 14th 2023 PST

HST 1 20580U 90037B 23072.40633718 .00007183 00000-0 39341-3 0 9992 2 20580 28.4691 184.9085 0003025 68.8171 344.0557 15.12322967606944 ISS (ZARYA) 1 25544U 98067A 23073.36569740 .00019001 00000-0 34864-3 0 9994 2 25544 51.6403 78.2673 0005725 83.4155 57.2753 15.49281621387083 CXO 1 25867U 99040B 23075.41392744 .00001121 00000-0 00000-0 0 9996 2 25867 38.7399 208.4399 9021198 253.0549 0.4930 0.37816239 12820 ...Continue Reading

[TLELIST] Current TLEs

March 14th 2023 PST

HST 1 20580U 90037B 23072.40633718 .00007183 00000-0 39341-3 0 9992 2 20580 28.4691 184.9085 0003025 68.8171 344.0557 15.12322967606944 ISS (ZARYA) 1 25544U 98067A 23073.36569740 .00019001 00000-0 34864-3 0 9994 2 25544 51.6403 78.2673 0005725 83.4155 57.2753 15.49281621387083 CXO 1 25867U 99040B 23075.41392744 .00001121 00000-0 00000-0 0 9996 2 25867 38.7399 208.4399 9021198 253.0549 0.4930 0.37816239 12820 ...Continue Reading

[TLELIST] Current TLEs

March 13th 2023 PST

HST 1 20580U 90037B 23071.41579759 .00008494 00000-0 46725-3 0 9996 2 20580 28.4691 191.4897 0002993 60.4471 348.8763 15.12309570606791 ISS (ZARYA) 1 25544U 98067A 23072.18799488 .00019339 00000-0 35521-3 0 9992 2 25544 51.6407 84.0968 0005877 78.5186 329.4010 15.49238013386903 CXO 1 25867U 99040B 23072.76983836 .00001103 00000-0 00000-0 0 9999 2 25867 38.7815 208.7173 9019956 252.8483 0.4313 0.37815795 12819 ...Continue Reading

[TLELIST] Current TLEs

March 13th 2023 PST

HST 1 20580U 90037B 23071.41579759 .00008494 00000-0 46725-3 0 9996 2 20580 28.4691 191.4897 0002993 60.4471 348.8763 15.12309570606791 ISS (ZARYA) 1 25544U 98067A 23072.18799488 .00019339 00000-0 35521-3 0 9992 2 25544 51.6407 84.0968 0005877 78.5186 329.4010 15.49238013386903 CXO 1 25867U 99040B 23072.76983836 .00001103 00000-0 00000-0 0 9999 2 25867 38.7815 208.7173 9019956 252.8483 0.4313 0.37815795 12819 ...Continue Reading
  • This mailing list is a public mailing list - anyone may join or leave, at any time.
  • This mailing list is announce-only.

International Space Station (ISS) / Hubble Space Telescope (HST) / Chandra X-Ray Observatory Orbital Data via EMAIL

Privacy Policy:

Private list